| time (UTC) | temp F | wind direction | speed MPH | gust MPH | rain 1hr in | rain 24hr in | rain mn in | humidity % | barometer mb |
| 20260507184042 | 67 | 220 | 3.0 | 7.0 | 0.00 | 0.00 | 0.00 | 39 | 1013.5 |
| 20260507183540 | 68 | 227 | 3.0 | 11.0 | 0.00 | 0.00 | 0.00 | 37 | 1013.2 |
| 20260507183100 | 67 | 248 | 2.0 | 7.0 | 0.00 | 0.00 | 0.00 | 39 | 1013.7 |
| 20260507182520 | 68 | 129 | 2.0 | 7.0 | 0.00 | 0.00 | 0.00 | 37 | 1013.4 |
| 20260507182022 | 68 | 214 | 2.0 | 8.0 | 0.00 | 0.00 | 0.00 | 37 | 1013.4 |
| 20260507181525 | 69 | 228 | 3.0 | 11.0 | 0.00 | 0.00 | 0.00 | 36 | 1013.5 |
| 20260507181023 | 68 | 286 | 3.0 | 10.0 | 0.00 | 0.00 | 0.00 | 36 | 1013.3 |
| 20260507180526 | 68 | 272 | 2.0 | 11.0 | 0.00 | 0.00 | 0.00 | 36 | 1013.6 |
| 20260507180023 | 67 | 312 | 2.0 | 8.0 | 0.00 | 0.00 | 0.00 | 38 | 1013.7 |
| 20260507175522 | 66 | 225 | 3.0 | 7.0 | 0.00 | 0.00 | 0.00 | 39 | 1013.9 |
| 20260507175021 | 67 | 217 | 3.0 | 11.0 | 0.00 | 0.00 | 0.00 | 40 | 1014.1 |
| 20260507174522 | 67 | 202 | 3.0 | 8.0 | 0.00 | 0.00 | 0.00 | 40 | 1014.1 |
| 20260507174022 | 67 | 210 | 2.0 | 6.0 | 0.00 | 0.00 | 0.00 | 39 | 1014.1 |
| 20260507173520 | 68 | 217 | 3.0 | 12.0 | 0.00 | 0.00 | 0.00 | 37 | 1013.9 |
| 20260507173020 | 67 | 331 | 2.0 | 8.0 | 0.00 | 0.00 | 0.00 | 36 | 1013.6 |
| 20260507172520 | 66 | 314 | 3.0 | 9.0 | 0.00 | 0.00 | 0.00 | 36 | 1013.7 |
| 20260507172023 | 65 | 229 | 3.0 | 8.0 | 0.00 | 0.00 | 0.00 | 38 | 1014.3 |
| 20260507171521 | 64 | 212 | 2.0 | 6.0 | 0.00 | 0.00 | 0.00 | 40 | 1014.3 |
| 20260507171021 | 65 | 179 | 3.0 | 7.0 | 0.00 | 0.00 | 0.00 | 38 | 1014.0 |
| 20260507170522 | 65 | 199 | 3.0 | 6.0 | 0.00 | 0.00 | 0.00 | 40 | 1014.3 |
| 20260507170020 | 66 | 194 | 3.0 | 6.0 | 0.00 | 0.00 | 0.00 | 42 | 1015.5 |
| 20260507165521 | 66 | 200 | 2.0 | 5.0 | 0.00 | 0.00 | 0.00 | 40 | 1014.6 |
| 20260507165022 | 66 | 266 | 1.0 | 4.0 | 0.00 | 0.00 | 0.00 | 39 | 1014.6 |
| 20260507164541 | 65 | 245 | 2.0 | 8.0 | 0.00 | 0.00 | 0.00 | 40 | 1014.7 |
| 20260507164022 | 64 | 210 | 2.0 | 9.0 | 0.00 | 0.00 | 0.00 | 42 | 1015.2 |
| 20260507163524 | 65 | 204 | 3.0 | 10.0 | 0.00 | 0.00 | 0.00 | 40 | 1014.7 |
| 20260507163023 | 64 | 222 | 2.0 | 7.0 | 0.00 | 0.00 | 0.00 | 39 | 1014.6 |
| 20260507162525 | 64 | 226 | 3.0 | 9.0 | 0.00 | 0.00 | 0.00 | 39 | 1014.6 |
| 20260507162104 | 64 | 201 | 2.0 | 5.0 | 0.00 | 0.00 | 0.00 | 40 | 1014.7 |
| 20260507161522 | 64 | 199 | 2.0 | 5.0 | 0.00 | 0.00 | 0.00 | 38 | 1014.3 |
| 20260507161024 | 62 | 220 | 3.0 | 9.0 | 0.00 | 0.00 | 0.00 | 42 | 1015.4 |
| 20260507160522 | 62 | 216 | 3.0 | 9.0 | 0.00 | 0.00 | 0.00 | 41 | 1014.6 |
| 20260507160023 | 61 | 172 | 3.0 | 9.0 | 0.00 | 0.00 | 0.00 | 40 | 1014.7 |
| 20260507155521 | 61 | 218 | 3.0 | 9.0 | 0.00 | 0.00 | 0.00 | 42 | 1015.1 |
| 20260507155043 | 61 | 210 | 3.0 | 8.0 | 0.00 | 0.00 | 0.00 | 43 | 1015.4 |
| 20260507154523 | 61 | 211 | 3.0 | 10.0 | 0.00 | 0.00 | 0.00 | 43 | 1015.2 |
| 20260507154023 | 61 | 195 | 3.0 | 6.0 | 0.00 | 0.00 | 0.00 | 43 | 1015.3 |
| 20260507153542 | 61 | 213 | 3.0 | 8.0 | 0.00 | 0.00 | 0.00 | 44 | 1015.5 |
| 20260507153023 | 61 | 193 | 2.0 | 7.0 | 0.00 | 0.00 | 0.00 | 45 | 1015.9 |
| 20260507152522 | 61 | 220 | 3.0 | 8.0 | 0.00 | 0.00 | 0.00 | 45 | 1015.7 |
| 20260507152022 | 61 | 205 | 2.0 | 7.0 | 0.00 | 0.00 | 0.00 | 47 | 1016.4 |
| 20260507151525 | 60 | 212 | 2.0 | 7.0 | 0.00 | 0.00 | 0.00 | 49 | 1017.7 |
| 20260507151023 | 60 | 191 | 2.0 | 5.0 | 0.00 | 0.00 | 0.00 | 48 | 1018.0 |
| 20260507150544 | 59 | 210 | 2.0 | 7.0 | 0.00 | 0.00 | 0.00 | 53 | 1019.9 |
| 20260507150023 | 59 | 198 | 3.0 | 7.0 | 0.00 | 0.00 | 0.00 | 52 | 1020.1 |
| 20260507145526 | 59 | 213 | 2.0 | 7.0 | 0.00 | 0.00 | 0.00 | 54 | 1022.7 |
| 20260507145023 | 58 | 210 | 3.0 | 7.0 | 0.00 | 0.00 | 0.00 | 53 | 1020.5 |
| 20260507144540 | 58 | 190 | 3.0 | 5.0 | 0.00 | 0.00 | 0.00 | 52 | 1018.9 |
| 20260507144021 | 58 | 165 | 2.0 | 5.0 | 0.00 | 0.00 | 0.00 | 53 | 1022.0 |
| 20260507143522 | 57 | 203 | 3.0 | 9.0 | 0.00 | 0.00 | 0.00 | 52 | 1020.0 |
| 20260507143023 | 56 | 212 | 3.0 | 7.0 | 0.00 | 0.00 | 0.00 | 53 | 1021.7 |
| 20260507142523 | 56 | 167 | 2.0 | 4.0 | 0.00 | 0.00 | 0.00 | 52 | 1020.1 |
| 20260507142043 | 56 | 190 | 2.0 | 6.0 | 0.00 | 0.00 | 0.00 | 55 | 1022.5 |
| 20260507141525 | 56 | 162 | 2.0 | 5.0 | 0.00 | 0.00 | 0.00 | 54 | 1021.2 |
| 20260507141021 | 56 | 163 | 2.0 | 5.0 | 0.00 | 0.00 | 0.00 | 53 | 1021.0 |
| 20260507140523 | 55 | 196 | 2.0 | 5.0 | 0.00 | 0.00 | 0.00 | 56 | 1023.3 |
| 20260507140021 | 55 | 193 | 2.0 | 5.0 | 0.00 | 0.00 | 0.00 | 56 | 1025.1 |
| 20260507135541 | 54 | 198 | 2.0 | 4.0 | 0.00 | 0.00 | 0.00 | 58 | 1027.1 |
| 20260507135024 | 53 | 174 | 2.0 | 4.0 | 0.00 | 0.00 | 0.00 | 59 | 1029.0 |
| 20260507134526 | 52 | 95 | 2.0 | 4.0 | 0.00 | 0.00 | 0.00 | 58 | 1029.3 |
| 20260507134026 | 52 | 138 | 2.0 | 3.0 | 0.00 | 0.00 | 0.00 | 60 | 1031.6 |
| 20260507133526 | 52 | 204 | 2.0 | 3.0 | 0.00 | 0.00 | 0.00 | 61 | 1033.4 |
| 20260507133025 | 51 | 182 | 1.0 | 3.0 | 0.00 | 0.00 | 0.00 | 62 | 1034.7 |
| 20260507132525 | 51 | 176 | 2.0 | 3.0 | 0.00 | 0.00 | 0.00 | 62 | 1035.0 |
| 20260507132025 | 50 | 218 | 1.0 | 3.0 | 0.00 | 0.00 | 0.00 | 62 | 1035.1 |
| 20260507131527 | 50 | 171 | 2.0 | 4.0 | 0.00 | 0.00 | 0.00 | 65 | 1038.7 |
| 20260507131027 | 49 | 214 | 2.0 | 3.0 | 0.00 | 0.00 | 0.00 | 69 | 1040.1 |
| 20260507130526 | 48 | 217 | 2.0 | 3.0 | 0.00 | 0.00 | 0.00 | 73 | 1035.8 |
| 20260507130027 | 48 | 190 | 2.0 | 3.0 | 0.00 | 0.00 | 0.00 | 76 | 1034.0 |
| 20260507125526 | 47 | 175 | 1.0 | 3.0 | 0.00 | 0.00 | 0.00 | 77 | 1033.8 |
| 20260507125026 | 47 | 190 | 1.0 | 2.0 | 0.00 | 0.00 | 0.00 | 78 | 1033.8 |
| 20260507124528 | 46 | 170 | 1.0 | 3.0 | 0.00 | 0.00 | 0.00 | 78 | 1034.4 |
| 20260507124028 | 45 | 174 | 1.0 | 2.0 | 0.00 | 0.00 | 0.00 | 81 | 1038.4 |
| 20260507123526 | 45 | 149 | 2.0 | 3.0 | 0.00 | 0.00 | 0.00 | 84 | 1042.2 |
| 20260507123108 | 44 | 200 | 1.0 | 2.0 | 0.00 | 0.00 | 0.00 | 87 | 1043.9 |
| 20260507122526 | 44 | 200 | 1.0 | 2.0 | 0.00 | 0.00 | 0.00 | 88 | 1043.9 |
| 20260507122027 | 43 | 237 | 1.0 | 2.0 | 0.00 | 0.00 | 0.00 | 89 | 1043.2 |
| 20260507121528 | 43 | 224 | 1.0 | 2.0 | 0.00 | 0.00 | 0.00 | 90 | 1042.2 |
| 20260507121027 | 43 | 224 | 1.0 | 2.0 | 0.00 | 0.00 | 0.00 | 91 | 1041.1 |
| 20260507120527 | 42 | 219 | 1.0 | 1.0 | 0.00 | 0.00 | 0.00 | 92 | 1040.2 |
| 20260507120026 | 42 | 221 | 1.0 | 2.0 | 0.00 | 0.00 | 0.00 | 92 | 1039.9 |
| 20260507115547 | 41 | 216 | 0.0 | 1.0 | 0.00 | 0.00 | 0.00 | 93 | 1039.8 |
| 20260507115027 | 41 | 223 | 1.0 | 2.0 | 0.00 | 0.00 | 0.00 | 93 | 1039.8 |
| 20260507114528 | 41 | 212 | 1.0 | 1.0 | 0.00 | 0.00 | 0.00 | 93 | 1040.0 |
| 20260507114029 | 41 | 218 | 1.0 | 1.0 | 0.00 | 0.00 | 0.00 | 93 | 1040.2 |
| 20260507113529 | 41 | 226 | 1.0 | 2.0 | 0.00 | 0.00 | 0.00 | 93 | 1040.5 |
| 20260507113029 | 41 | 227 | 1.0 | 2.0 | 0.00 | 0.00 | 0.00 | 93 | 1040.8 |
| 20260507112528 | 41 | 224 | 1.0 | 2.0 | 0.00 | 0.00 | 0.00 | 93 | 1041.2 |
| 20260507112031 | 41 | 230 | 1.0 | 2.0 | 0.00 | 0.00 | 0.00 | 93 | 1041.6 |
| 20260507111527 | 41 | 234 | 1.0 | 2.0 | 0.00 | 0.00 | 0.00 | 93 | 1042.0 |
| 20260507111029 | 41 | 231 | 1.0 | 2.0 | 0.00 | 0.00 | 0.00 | 92 | 1042.3 |
| 20260507110527 | 41 | 226 | 1.0 | 2.0 | 0.00 | 0.00 | 0.00 | 92 | 1042.6 |
| 20260507110028 | 41 | 249 | 2.0 | 2.0 | 0.00 | 0.00 | 0.00 | 92 | 1042.9 |
| 20260507105528 | 41 | 228 | 1.0 | 2.0 | 0.00 | 0.00 | 0.00 | 92 | 1043.2 |
| 20260507105048 | 41 | 251 | 2.0 | 2.0 | 0.00 | 0.00 | 0.00 | 92 | 1043.5 |
| 20260507104548 | 41 | 238 | 2.0 | 2.0 | 0.00 | 0.00 | 0.00 | 92 | 1043.8 |
| 20260507104028 | 41 | 236 | 2.0 | 2.0 | 0.00 | 0.00 | 0.00 | 91 | 1043.9 |
| 20260507103529 | 42 | 234 | 2.0 | 2.0 | 0.00 | 0.00 | 0.00 | 91 | 1044.0 |
| 20260507103029 | 42 | 243 | 2.0 | 2.0 | 0.00 | 0.00 | 0.00 | 91 | 1044.0 |
| 20260507102529 | 42 | 230 | 2.0 | 2.0 | 0.00 | 0.00 | 0.00 | 91 | 1044.0 |
| 20260507102028 | 42 | 232 | 2.0 | 2.0 | 0.00 | 0.00 | 0.00 | 91 | 1043.9 |
| 20260507101528 | 42 | 237 | 2.0 | 2.0 | 0.00 | 0.00 | 0.00 | 91 | 1043.8 |
| 20260507101030 | 42 | 307 | 2.0 | 2.0 | 0.00 | 0.00 | 0.00 | 91 | 1043.8 |
| 20260507100531 | 42 | 240 | 2.0 | 2.0 | 0.00 | 0.00 | 0.00 | 91 | 1043.8 |
| 20260507100029 | 42 | 237 | 2.0 | 2.0 | 0.00 | 0.00 | 0.00 | 91 | 1043.8 |
| 20260507095529 | 42 | 233 | 2.0 | 2.0 | 0.00 | 0.00 | 0.00 | 91 | 1043.7 |
| 20260507095028 | 42 | 262 | 2.0 | 2.0 | 0.00 | 0.00 | 0.00 | 91 | 1043.5 |
| 20260507094529 | 42 | 254 | 2.0 | 2.0 | 0.00 | 0.00 | 0.00 | 91 | 1043.4 |
| 20260507094050 | 42 | 237 | 2.0 | 2.0 | 0.00 | 0.00 | 0.00 | 90 | 1043.3 |
| 20260507093529 | 42 | 231 | 2.0 | 2.0 | 0.00 | 0.00 | 0.00 | 90 | 1043.2 |
| 20260507093030 | 42 | 240 | 2.0 | 2.0 | 0.00 | 0.00 | 0.00 | 90 | 1043.1 |
| 20260507092530 | 42 | 287 | 2.0 | 2.0 | 0.00 | 0.00 | 0.00 | 90 | 1043.1 |
| 20260507092029 | 42 | 227 | 1.0 | 2.0 | 0.00 | 0.00 | 0.00 | 90 | 1043.0 |
| 20260507091550 | 41 | 235 | 1.0 | 2.0 | 0.00 | 0.00 | 0.00 | 90 | 1043.0 |
| 20260507091030 | 41 | 234 | 1.0 | 2.0 | 0.00 | 0.00 | 0.00 | 90 | 1042.9 |
| 20260507090530 | 41 | 228 | 1.0 | 2.0 | 0.00 | 0.00 | 0.00 | 91 | 1042.9 |
| 20260507090051 | 41 | 232 | 2.0 | 2.0 | 0.00 | 0.00 | 0.00 | 90 | 1042.9 |
| 20260507085530 | 41 | 231 | 2.0 | 2.0 | 0.00 | 0.00 | 0.00 | 89 | 1042.7 |
| 20260507085030 | 41 | 244 | 2.0 | 2.0 | 0.00 | 0.00 | 0.00 | 89 | 1042.7 |
| 20260507084530 | 41 | 249 | 2.0 | 2.0 | 0.00 | 0.00 | 0.00 | 89 | 1042.3 |
| 20260507084029 | 41 | 242 | 2.0 | 2.0 | 0.00 | 0.00 | 0.00 | 88 | 1041.8 |
| 20260507083530 | 41 | 236 | 2.0 | 2.0 | 0.00 | 0.00 | 0.00 | 88 | 1041.7 |
| 20260507083111 | 41 | 245 | 2.0 | 2.0 | 0.00 | 0.00 | 0.00 | 88 | 1041.4 |
| 20260507082551 | 41 | 292 | 2.0 | 2.0 | 0.00 | 0.00 | 0.00 | 88 | 1041.2 |
| 20260507082031 | 41 | 246 | 2.0 | 2.0 | 0.00 | 0.00 | 0.00 | 87 | 1040.9 |
| 20260507081532 | 42 | 234 | 1.0 | 2.0 | 0.00 | 0.00 | 0.00 | 87 | 1040.3 |
| 20260507081032 | 42 | 261 | 1.0 | 2.0 | 0.00 | 0.00 | 0.00 | 86 | 1039.7 |
| 20260507080533 | 42 | 235 | 1.0 | 2.0 | 0.00 | 0.00 | 0.00 | 86 | 1038.6 |
| 20260507080055 | 42 | 286 | 2.0 | 2.0 | 0.00 | 0.00 | 0.00 | 84 | 1037.8 |
| 20260507075552 | 42 | 243 | 2.0 | 2.0 | 0.00 | 0.00 | 0.00 | 84 | 1038.5 |
| 20260507075031 | 42 | 233 | 2.0 | 2.0 | 0.00 | 0.00 | 0.00 | 85 | 1038.9 |
| 20260507074531 | 43 | 239 | 2.0 | 2.0 | 0.00 | 0.00 | 0.00 | 85 | 1038.1 |
| 20260507074032 | 43 | 234 | 2.0 | 2.0 | 0.00 | 0.00 | 0.00 | 85 | 1038.0 |
| 20260507073533 | 43 | 243 | 2.0 | 2.0 | 0.00 | 0.00 | 0.00 | 84 | 1037.5 |
| 20260507073033 | 43 | 235 | 2.0 | 2.0 | 0.00 | 0.00 | 0.00 | 84 | 1036.5 |
| 20260507072531 | 43 | 295 | 2.0 | 2.0 | 0.00 | 0.00 | 0.00 | 82 | 1034.9 |
| 20260507072031 | 43 | 245 | 2.0 | 2.0 | 0.00 | 0.00 | 0.00 | 82 | 1035.1 |
| 20260507071522 | 44 | 239 | 2.0 | 2.0 | 0.00 | 0.00 | 0.00 | 82 | 1034.6 |
| 20260507071022 | 44 | 256 | 2.0 | 2.0 | 0.00 | 0.00 | 0.00 | 81 | 1034.3 |
| 20260507070522 | 44 | 262 | 2.0 | 2.0 | 0.00 | 0.00 | 0.00 | 81 | 1034.7 |
| 20260507070024 | 44 | 249 | 2.0 | 2.0 | 0.00 | 0.00 | 0.00 | 81 | 1034.8 |
| 20260507065523 | 45 | 247 | 2.0 | 2.0 | 0.00 | 0.00 | 0.00 | 81 | 1034.3 |
| 20260507065043 | 45 | 336 | 2.0 | 3.0 | 0.00 | 0.01 | 0.00 | 80 | 1033.4 |
| 20260507064522 | 45 | 257 | 2.0 | 2.0 | 0.00 | 0.01 | 0.00 | 79 | 1032.3 |
| 20260507064020 | 45 | 342 | 2.0 | 3.0 | 0.00 | 0.01 | 0.00 | 77 | 1031.3 |
| 20260507063519 | 45 | 10 | 1.0 | 3.0 | 0.00 | 0.02 | 0.00 | 77 | 1031.2 |
| 20260507063024 | 45 | 17 | 3.0 | 3.0 | 0.00 | 0.02 | 0.00 | 77 | 1031.2 |
| 20260507062523 | 45 | 15 | 2.0 | 3.0 | 0.00 | 0.02 | 0.00 | 76 | 1031.3 |
| 20260507062026 | 45 | 14 | 2.0 | 3.0 | 0.00 | 0.02 | 0.00 | 75 | 1031.5 |
| 20260507061524 | 45 | 17 | 3.0 | 3.0 | 0.00 | 0.02 | 0.00 | 75 | 1031.4 |
| 20260507061023 | 45 | 19 | 3.0 | 3.0 | 0.00 | 0.02 | 0.00 | 76 | 1031.4 |
| 20260507060523 | 46 | 16 | 3.0 | 3.0 | 0.00 | 0.03 | 0.00 | 75 | 1031.5 |
| 20260507060045 | 46 | 19 | 3.0 | 3.0 | 0.00 | 0.03 | 0.00 | 75 | 1031.9 |
| 20260507055521 | 46 | 15 | 3.0 | 3.0 | 0.00 | 0.03 | 0.00 | 75 | 1031.6 |
| 20260507055023 | 46 | 13 | 2.0 | 3.0 | 0.00 | 0.04 | 0.00 | 75 | 1031.7 |
| 20260507054520 | 46 | 15 | 2.0 | 3.0 | 0.00 | 0.04 | 0.00 | 74 | 1032.4 |
| 20260507054043 | 46 | 19 | 2.0 | 3.0 | 0.00 | 0.04 | 0.00 | 73 | 1033.2 |
| 20260507053522 | 47 | 18 | 3.0 | 3.0 | 0.00 | 0.04 | 0.00 | 72 | 1034.7 |
| 20260507053027 | 47 | 18 | 3.0 | 3.0 | 0.00 | 0.04 | 0.00 | 72 | 1035.3 |
| 20260507052524 | 47 | 21 | 2.0 | 3.0 | 0.00 | 0.04 | 0.00 | 71 | 1036.7 |
| 20260507052025 | 47 | 19 | 2.0 | 3.0 | 0.00 | 0.04 | 0.00 | 70 | 1038.7 |
| 20260507051521 | 47 | 20 | 3.0 | 3.0 | 0.00 | 0.04 | 0.00 | 70 | 1038.2 |
| 20260507051022 | 47 | 21 | 3.0 | 3.0 | 0.00 | 0.04 | 0.00 | 70 | 1038.0 |
| 20260507050521 | 47 | 18 | 1.0 | 3.0 | 0.00 | 0.04 | 0.00 | 71 | 1037.2 |
| 20260507050021 | 47 | 219 | 0.0 | 2.0 | 0.00 | 0.04 | 0.00 | 70 | 1037.7 |
| 20260507045522 | 47 | 15 | 2.0 | 3.0 | 0.00 | 0.04 | 0.04 | 70 | 1037.9 |
| 20260507045023 | 47 | 16 | 2.0 | 3.0 | 0.00 | 0.05 | 0.04 | 70 | 1037.1 |
| 20260507044521 | 47 | 17 | 2.0 | 3.0 | 0.00 | 0.05 | 0.04 | 72 | 1034.9 |
| 20260507044042 | 47 | 19 | 2.0 | 3.0 | 0.00 | 0.05 | 0.04 | 71 | 1036.7 |
| 20260507043522 | 47 | 15 | 3.0 | 3.0 | 0.00 | 0.05 | 0.04 | 71 | 1036.1 |
| 20260507043022 | 48 | 9 | 1.0 | 3.0 | 0.00 | 0.06 | 0.04 | 72 | 1034.3 |
| 20260507042521 | 48 | 18 | 2.0 | 3.0 | 0.00 | 0.06 | 0.04 | 72 | 1034.9 |
| 20260507042024 | 48 | 18 | 2.0 | 3.0 | 0.00 | 0.06 | 0.04 | 71 | 1037.1 |
| 20260507041522 | 48 | 18 | 2.0 | 3.0 | 0.00 | 0.06 | 0.04 | 70 | 1038.1 |
| 20260507041023 | 48 | 17 | 2.0 | 3.0 | 0.00 | 0.06 | 0.04 | 70 | 1038.5 |
| 20260507040542 | 48 | 12 | 1.0 | 3.0 | 0.00 | 0.06 | 0.04 | 71 | 1037.1 |
| 20260507040022 | 48 | 19 | 2.0 | 3.0 | 0.00 | 0.06 | 0.04 | 70 | 1038.4 |
| 20260507035523 | 48 | 9 | 1.0 | 3.0 | 0.00 | 0.06 | 0.04 | 70 | 1038.5 |
| 20260507035025 | 49 | 11 | 2.0 | 3.0 | 0.00 | 0.06 | 0.04 | 70 | 1039.1 |
| 20260507034520 | 49 | 16 | 2.0 | 3.0 | 0.00 | 0.06 | 0.04 | 68 | 1040.7 |
| 20260507034044 | 49 | 319 | 1.0 | 3.0 | 0.00 | 0.06 | 0.04 | 68 | 1040.7 |
| 20260507033523 | 49 | 337 | 1.0 | 3.0 | 0.00 | 0.06 | 0.04 | 68 | 1040.7 |
| 20260507033025 | 49 | 17 | 2.0 | 3.0 | 0.00 | 0.06 | 0.04 | 67 | 1041.4 |
| 20260507032523 | 49 | 246 | 2.0 | 3.0 | 0.00 | 0.06 | 0.04 | 67 | 1041.4 |
| 20260507032025 | 49 | 228 | 1.0 | 3.0 | 0.00 | 0.06 | 0.04 | 68 | 1041.1 |
| 20260507031524 | 50 | 308 | 2.0 | 3.0 | 0.00 | 0.07 | 0.04 | 67 | 1041.3 |
| 20260507031020 | 50 | 18 | 3.0 | 4.0 | 0.00 | 0.07 | 0.04 | 67 | 1041.3 |
| 20260507030520 | 50 | 349 | 3.0 | 3.0 | 0.00 | 0.07 | 0.04 | 66 | 1041.5 |
| 20260507030021 | 50 | 245 | 3.0 | 3.0 | 0.00 | 0.07 | 0.04 | 66 | 1041.6 |
| 20260507025520 | 50 | 234 | 3.0 | 3.0 | 0.00 | 0.07 | 0.04 | 66 | 1041.4 |
| 20260507025024 | 51 | 248 | 3.0 | 4.0 | 0.00 | 0.07 | 0.04 | 65 | 1041.0 |
| 20260507024524 | 51 | 336 | 3.0 | 4.0 | 0.00 | 0.07 | 0.04 | 65 | 1041.3 |
| 20260507024025 | 51 | 262 | 3.0 | 4.0 | 0.00 | 0.07 | 0.04 | 65 | 1041.3 |
| 20260507023524 | 51 | 347 | 3.0 | 4.0 | 0.00 | 0.07 | 0.04 | 64 | 1041.0 |
| 20260507023025 | 51 | 251 | 3.0 | 4.0 | 0.00 | 0.07 | 0.04 | 64 | 1040.3 |
| 20260507022520 | 51 | 260 | 3.0 | 4.0 | 0.00 | 0.07 | 0.04 | 64 | 1039.9 |
| 20260507022022 | 52 | 288 | 3.0 | 4.0 | 0.00 | 0.07 | 0.04 | 63 | 1039.3 |
| 20260507021521 | 52 | 252 | 3.0 | 4.0 | 0.00 | 0.07 | 0.04 | 64 | 1040.6 |
| 20260507021021 | 52 | 337 | 3.0 | 4.0 | 0.00 | 0.07 | 0.04 | 63 | 1040.2 |
| 20260507020542 | 52 | 338 | 4.0 | 4.0 | 0.00 | 0.07 | 0.04 | 63 | 1040.3 |
| 20260507020043 | 52 | 239 | 3.0 | 4.0 | 0.00 | 0.08 | 0.04 | 63 | 1040.0 |
| 20260507015521 | 52 | 333 | 3.0 | 4.0 | 0.00 | 0.08 | 0.04 | 62 | 1038.1 |
| 20260507015023 | 53 | 241 | 3.0 | 4.0 | 0.00 | 0.08 | 0.04 | 62 | 1038.5 |
| 20260507014601 | 53 | 243 | 3.0 | 4.0 | 0.00 | 0.09 | 0.04 | 62 | 1039.1 |
| 20260507014022 | 53 | 347 | 4.0 | 4.0 | 0.00 | 0.10 | 0.04 | 61 | 1035.9 |
| 20260507013543 | 54 | 245 | 3.0 | 4.0 | 0.00 | 0.10 | 0.04 | 60 | 1034.7 |
| 20260507013022 | 54 | 242 | 3.0 | 4.0 | 0.00 | 0.11 | 0.04 | 59 | 1032.4 |
| 20260507012522 | 55 | 231 | 1.0 | 3.0 | 0.00 | 0.11 | 0.04 | 58 | 1029.9 |
| 20260507012022 | 55 | 4 | 2.0 | 4.0 | 0.00 | 0.12 | 0.04 | 57 | 1028.7 |
| 20260507011522 | 55 | 317 | 1.0 | 4.0 | 0.00 | 0.12 | 0.04 | 57 | 1028.0 |
| 20260507011022 | 56 | 25 | 3.0 | 4.0 | 0.00 | 0.12 | 0.04 | 54 | 1022.8 |
| 20260507010522 | 56 | 26 | 3.0 | 4.0 | 0.00 | 0.13 | 0.04 | 53 | 1021.3 |
| 20260507010023 | 56 | 26 | 4.0 | 5.0 | 0.00 | 0.15 | 0.04 | 53 | 1021.7 |
| 20260507005523 | 57 | 25 | 3.0 | 5.0 | 0.00 | 0.16 | 0.04 | 51 | 1019.9 |
| 20260507005044 | 57 | 23 | 4.0 | 6.0 | 0.00 | 0.17 | 0.04 | 51 | 1019.4 |
| 20260507004543 | 57 | 23 | 4.0 | 6.0 | 0.00 | 0.19 | 0.04 | 51 | 1018.5 |
| 20260507004023 | 57 | 11 | 4.0 | 6.0 | 0.00 | 0.19 | 0.04 | 51 | 1019.2 |
| 20260507003522 | 57 | 17 | 5.0 | 5.0 | 0.00 | 0.19 | 0.04 | 50 | 1018.5 |
| 20260507003045 | 58 | 344 | 4.0 | 6.0 | 0.00 | 0.21 | 0.04 | 49 | 1017.8 |
| 20260507002523 | 58 | 6 | 5.0 | 7.0 | 0.00 | 0.21 | 0.04 | 49 | 1017.3 |
| 20260507002024 | 58 | 319 | 5.0 | 7.0 | 0.00 | 0.21 | 0.04 | 48 | 1017.0 |
| 20260507001521 | 58 | 351 | 6.0 | 7.0 | 0.00 | 0.21 | 0.04 | 48 | 1016.7 |
| 20260507001021 | 58 | 329 | 6.0 | 7.0 | 0.00 | 0.21 | 0.04 | 48 | 1016.0 |
| 20260507000521 | 58 | 232 | 4.0 | 7.0 | 0.00 | 0.21 | 0.04 | 47 | 1016.2 |
| 20260507000023 | 59 | 254 | 5.0 | 6.0 | 0.00 | 0.21 | 0.04 | 48 | 1016.5 |
| 20260506235523 | 59 | 346 | 6.0 | 7.0 | 0.00 | 0.21 | 0.04 | 47 | 1016.0 |
| 20260506235045 | 59 | 3 | 6.0 | 8.0 | 0.00 | 0.21 | 0.04 | 46 | 1015.3 |
| 20260506234524 | 60 | 10 | 6.0 | 9.0 | 0.00 | 0.21 | 0.04 | 45 | 1014.6 |
| 20260506234024 | 60 | 13 | 7.0 | 9.0 | 0.00 | 0.22 | 0.04 | 46 | 1015.1 |
| 20260506233521 | 60 | 23 | 8.0 | 11.0 | 0.00 | 0.22 | 0.04 | 46 | 1015.3 |
| 20260506233021 | 60 | 21 | 8.0 | 10.0 | 0.00 | 0.22 | 0.04 | 45 | 1014.7 |
| 20260506232522 | 60 | 21 | 8.0 | 11.0 | 0.00 | 0.22 | 0.04 | 45 | 1014.8 |
| 20260506232042 | 60 | 22 | 8.0 | 11.0 | 0.00 | 0.25 | 0.04 | 45 | 1014.8 |
| 20260506231521 | 60 | 25 | 7.0 | 11.0 | 0.00 | 0.28 | 0.04 | 46 | 1015.0 |
| 20260506231021 | 60 | 25 | 7.0 | 10.0 | 0.00 | 0.29 | 0.04 | 45 | 1014.9 |
| 20260506230603 | 60 | 256 | 7.0 | 10.0 | 0.00 | 0.30 | 0.04 | 45 | 1014.8 |
| 20260506230026 | 60 | 227 | 7.0 | 9.0 | 0.00 | 0.30 | 0.04 | 44 | 1014.3 |
| 20260506225523 | 60 | 224 | 6.0 | 9.0 | 0.00 | 0.30 | 0.04 | 44 | 1014.5 |
| 20260506225021 | 60 | 230 | 6.0 | 9.0 | 0.00 | 0.30 | 0.04 | 45 | 1014.9 |
| 20260506224521 | 60 | 321 | 6.0 | 10.0 | 0.00 | 0.30 | 0.04 | 46 | 1015.8 |
| 20260506224022 | 60 | 275 | 6.0 | 9.0 | 0.00 | 0.30 | 0.04 | 44 | 1014.7 |
| 20260506223524 | 61 | 251 | 5.0 | 10.0 | 0.00 | 0.30 | 0.04 | 45 | 1014.8 |
| 20260506223022 | 61 | 233 | 2.0 | 7.0 | 0.00 | 0.31 | 0.04 | 43 | 1014.4 |
| 20260506222522 | 61 | 219 | 1.0 | 2.0 | 0.00 | 0.31 | 0.04 | 44 | 1014.4 |
| 20260506222022 | 62 | 223 | 2.0 | 6.0 | 0.00 | 0.31 | 0.04 | 43 | 1014.2 |
| 20260506221523 | 62 | 228 | 2.0 | 7.0 | 0.00 | 0.31 | 0.04 | 45 | 1014.7 |
| 20260506221023 | 62 | 227 | 3.0 | 7.0 | 0.00 | 0.31 | 0.04 | 45 | 1015.0 |
| 20260506220520 | 62 | 231 | 5.0 | 9.0 | 0.00 | 0.31 | 0.04 | 44 | 1014.3 |
| 20260506220023 | 62 | 225 | 5.0 | 9.0 | 0.00 | 0.31 | 0.04 | 45 | 1014.9 |
| 20260506215523 | 62 | 223 | 3.0 | 6.0 | 0.00 | 0.31 | 0.04 | 44 | 1014.6 |
| 20260506215023 | 62 | 232 | 4.0 | 10.0 | 0.00 | 0.31 | 0.04 | 43 | 1014.6 |
| 20260506214522 | 62 | 306 | 7.0 | 11.0 | 0.00 | 0.31 | 0.04 | 44 | 1014.7 |
| 20260506214025 | 62 | 305 | 7.0 | 10.0 | 0.00 | 0.31 | 0.04 | 44 | 1014.6 |
| 20260506213523 | 62 | 273 | 7.0 | 10.0 | 0.00 | 0.31 | 0.04 | 43 | 1014.3 |
| 20260506213021 | 62 | 255 | 3.0 | 8.0 | 0.00 | 0.31 | 0.04 | 45 | 1014.8 |
| 20260506212524 | 62 | 271 | 6.0 | 9.0 | 0.00 | 0.31 | 0.04 | 44 | 1015.1 |
| 20260506212021 | 62 | 259 | 6.0 | 10.0 | 0.00 | 0.31 | 0.04 | 43 | 1014.3 |
| 20260506211522 | 62 | 260 | 8.0 | 12.0 | 0.00 | 0.31 | 0.04 | 43 | 1014.3 |
| 20260506211100 | 62 | 255 | 7.0 | 11.0 | 0.00 | 0.31 | 0.04 | 44 | 1014.7 |
| 20260506210520 | 62 | 247 | 2.0 | 10.0 | 0.00 | 0.31 | 0.04 | 45 | 1015.0 |
| 20260506210023 | 63 | 219 | 2.0 | 7.0 | 0.00 | 0.31 | 0.04 | 43 | 1014.6 |
| 20260506205604 | 63 | 218 | 2.0 | 7.0 | 0.00 | 0.31 | 0.04 | 45 | 1015.3 |
| 20260506205023 | 62 | 217 | 2.0 | 7.0 | 0.00 | 0.31 | 0.04 | 47 | 1016.0 |
| 20260506204524 | 62 | 215 | 2.0 | 8.0 | 0.00 | 0.32 | 0.04 | 47 | 1016.2 |
| 20260506204041 | 62 | 218 | 3.0 | 8.0 | 0.00 | 0.32 | 0.04 | 48 | 1016.8 |
| 20260506203520 | 61 | 266 | 5.0 | 11.0 | 0.00 | 0.32 | 0.04 | 45 | 1015.1 |
| 20260506203022 | 61 | 304 | 7.0 | 10.0 | 0.00 | 0.32 | 0.04 | 46 | 1015.7 |
| 20260506202522 | 62 | 347 | 9.0 | 14.0 | 0.00 | 0.32 | 0.04 | 44 | 1015.0 |
| 20260506202021 | 62 | 319 | 8.0 | 14.0 | 0.00 | 0.32 | 0.04 | 43 | 1014.7 |
| 20260506201521 | 62 | 9 | 8.0 | 10.0 | 0.00 | 0.32 | 0.04 | 43 | 1014.9 |
| 20260506201021 | 62 | 347 | 7.0 | 10.0 | 0.00 | 0.33 | 0.04 | 44 | 1015.0 |
| 20260506200521 | 62 | 215 | 3.0 | 8.0 | 0.00 | 0.33 | 0.04 | 45 | 1016.0 |
| 20260506200043 | 62 | 216 | 2.0 | 8.0 | 0.00 | 0.33 | 0.04 | 45 | 1016.0 |
| 20260506195521 | 62 | 219 | 2.0 | 8.0 | 0.00 | 0.33 | 0.04 | 44 | 1015.1 |
| 20260506195021 | 61 | 214 | 3.0 | 8.0 | 0.00 | 0.33 | 0.04 | 45 | 1016.2 |
| 20260506194603 | 61 | 214 | 3.0 | 8.0 | 0.00 | 0.33 | 0.04 | 46 | 1016.6 |
| 20260506194022 | 61 | 221 | 2.0 | 8.0 | 0.00 | 0.33 | 0.04 | 46 | 1016.4 |
| 20260506193543 | 62 | 242 | 6.0 | 10.0 | 0.00 | 0.33 | 0.04 | 44 | 1015.7 |
| 20260506193022 | 62 | 227 | 5.0 | 10.0 | 0.00 | 0.33 | 0.04 | 44 | 1016.2 |
| 20260506192524 | 61 | 277 | 6.0 | 10.0 | 0.00 | 0.33 | 0.04 | 43 | 1015.0 |
| 20260506192023 | 61 | 331 | 6.0 | 9.0 | 0.00 | 0.33 | 0.04 | 43 | 1015.0 |
| 20260506191522 | 61 | 345 | 7.0 | 11.0 | 0.00 | 0.33 | 0.04 | 43 | 1015.0 |
| 20260506191043 | 62 | 12 | 8.0 | 12.0 | 0.00 | 0.33 | 0.04 | 43 | 1014.9 |
| 20260506190523 | 62 | 14 | 9.0 | 11.0 | 0.00 | 0.33 | 0.04 | 44 | 1014.9 |
| 20260506190025 | 62 | 14 | 9.0 | 12.0 | 0.00 | 0.33 | 0.04 | 42 | 1014.5 |
| 20260506185523 | 63 | 19 | 9.0 | 14.0 | 0.00 | 0.33 | 0.04 | 41 | 1014.1 |
| 20260506185022 | 64 | 341 | 7.0 | 15.0 | 0.00 | 0.33 | 0.04 | 42 | 1014.1 |
| 20260506184524 | 63 | 342 | 7.0 | 13.0 | 0.00 | 0.33 | 0.04 | 42 | 1014.2 |